TimeCDT,TemperatureF,Dew PointF,Humidity,Sea Level PressureIn,VisibilityMPH,Wind Direction,Wind SpeedMPH,Gust SpeedMPH,PrecipitationIn,Events,Conditions,WindDirDegrees,DateUTC
12:53 AM,50.0,41.0,71,30.20,10.0,NNE,4.6,-,N/A,,Mostly Cloudy,20,2014-03-27 05:53:00
1:53 AM,51.1,41.0,68,30.17,10.0,ESE,4.6,-,N/A,,Overcast,110,2014-03-27 06:53:00
2:53 AM,52.0,42.1,69,30.14,10.0,Calm,Calm,-,N/A,,Overcast,0,2014-03-27 07:53:00
3:53 AM,51.1,44.1,77,30.13,10.0,Calm,Calm,-,N/A,,Overcast,0,2014-03-27 08:53:00
4:53 AM,48.9,44.1,83,30.12,10.0,Calm,Calm,-,N/A,,Mostly Cloudy,0,2014-03-27 09:53:00
5:53 AM,48.9,45.0,86,30.10,10.0,ENE,3.5,-,N/A,,Clear,70,2014-03-27 10:53:00
6:53 AM,48.0,44.1,86,30.11,10.0,East,4.6,-,N/A,,Clear,80,2014-03-27 11:53:00
7:53 AM,54.0,50.0,86,30.12,10.0,ESE,3.5,-,N/A,,Partly Cloudy,110,2014-03-27 12:53:00
8:53 AM,63.0,52.0,67,30.12,10.0,SE,11.5,-,N/A,,Scattered Clouds,130,2014-03-27 13:53:00
9:53 AM,68.0,54.0,61,30.13,10.0,SSE,18.4,26.5,N/A,,Mostly Cloudy,150,2014-03-27 14:53:00
10:53 AM,66.0,55.0,68,30.14,10.0,SE,16.1,26.5,N/A,,Overcast,140,2014-03-27 15:53:00
11:53 AM,68.0,55.0,63,30.13,10.0,SSE,18.4,26.5,N/A,,Overcast,150,2014-03-27 16:53:00
12:53 PM,66.0,55.0,68,30.12,10.0,SE,18.4,26.5,N/A,,Overcast,140,2014-03-27 17:53:00
1:53 PM,66.0,55.9,70,30.10,10.0,SE,11.5,-,N/A,,Overcast,130,2014-03-27 18:53:00
2:00 PM,66.0,57.0,73,30.10,10.0,SE,9.2,-,N/A,,Overcast,130,2014-03-27 19:00:00
2:53 PM,66.9,55.9,68,30.08,10.0,SSE,8.1,-,0.00,,Overcast,150,2014-03-27 19:53:00
3:05 PM,66.9,57.0,70,30.07,10.0,SE,8.1,-,N/A,,Overcast,130,2014-03-27 20:05:00
3:29 PM,66.0,57.9,75,30.06,10.0,SE,11.5,-,0.00,Rain,Light Rain,140,2014-03-27 20:29:00
3:53 PM,66.9,57.0,70,30.05,10.0,SSE,15.0,20.7,0.00,,Overcast,150,2014-03-27 20:53:00
4:34 PM,66.0,57.9,75,30.04,10.0,SE,11.5,20.7,N/A,,Overcast,140,2014-03-27 21:34:00
4:53 PM,66.0,59.0,78,30.04,10.0,SSE,9.2,-,N/A,,Overcast,150,2014-03-27 21:53:00
5:13 PM,64.9,59.0,81,30.03,10.0,SE,10.4,-,0.00,Rain,Light Rain,140,2014-03-27 22:13:00
5:53 PM,64.0,59.0,84,30.02,10.0,SE,11.5,-,0.00,,Overcast,140,2014-03-27 22:53:00
6:02 PM,64.0,60.1,87,30.02,10.0,SE,8.1,-,N/A,,Overcast,130,2014-03-27 23:02:00
6:27 PM,64.0,60.1,87,30.00,10.0,SE,8.1,-,0.00,Rain,Light Rain,130,2014-03-27 23:27:00
6:53 PM,64.0,61.0,90,30.00,9.0,SE,11.5,-,0.00,Rain,Light Rain,130,2014-03-27 23:53:00
7:53 PM,63.0,61.0,93,30.00,10.0,SE,9.2,-,0.00,,Overcast,130,2014-03-28 00:53:00
8:53 PM,64.0,62.1,93,29.99,10.0,ESE,12.7,18.4,0.00,,Overcast,120,2014-03-28 01:53:00
9:53 PM,64.0,62.1,93,30.00,10.0,SE,9.2,-,0.00,Rain,Light Rain,130,2014-03-28 02:53:00
10:53 PM,64.0,62.1,93,30.01,10.0,SE,9.2,-,0.01,Rain,Light Rain,130,2014-03-28 03:53:00
11:35 PM,64.9,62.1,90,29.96,10.0,SE,11.5,-,0.00,Thunderstorm,Overcast,130,2014-03-28 04:35:00
11:53 PM,64.9,63.0,93,29.97,9.0,SE,11.5,20.7,0.01,Rain-Thunderstorm,Light Thunderstorms and Rain,140,2014-03-28 04:53:00